Vertical_Velocity
-4 -7 -6 -1 -5 -4 6 -2 -1 -1 3 -5 -3 3 10 7 11 -7 -5 -11 -7 -13 187 50 12 3 -2 2 -7 -2 -2 -1 -1 -1 1 -0 0 -1 1 -1 2 1 1 -0 -1 -1 -3 -1 -5
-4 -8 -8 -6 -6 1 1 -11 -7 11 8 13 6 6 1 1 1 0 1 10 -7 -4 -22 -4 104 9 3 -4 0 4 3 -2 5 2 -2 3 1 1 3 2 -0 3 -3 -0 -2 -2 -2 2 -1
-6 -3 -0 -7 -2 1 -3 -4 0 0 -0 13 -3 4 2 -1 1 -0 -10 7 9 -7 -1 -21 16 12 -4 1 -1 -2 1 -1 -1 1 -3 1 0 2 2 2 -0 4 -2 1 -1 -2 -2 2 -2
-5 -5 -7 -4 -1 -4 -15 9 -1 -8 -1 -11 7 -10 -2 3 1 -3 3 -37 6 38 22 17 11 1 -5 6 2 -2 -4 -4 -1 4 -2 -2 -0 1 2 1 -0 3 -2 3 1 0 -1 -1 -3
-3 -2 -2 1 -10 -11 4 6 9 -13 6 -0 4 -1 -11 -19 -2 3 2 -7 9 7 -5 -4 12 25 -7 3 1 2 -3 1 1 -2 -3 -6 1 0 3 -1 2 -1 1 -1 4 -3 -3 -4 -1
-3 -2 -3 -7 -1 5 9 5 3 -7 -10 -1 5 -2 -2 -13 4 7 -10 -14 -0 -3 3 -14 15 58 -13 -5 21 13 2 -2 -4 -1 -1 0 0 -0 2 -2 -2 1 2 -0 2 -1 -1 1 -0
0 -2 -6 -3 1 1 7 1 -9 -2 -1 14 13 -4 -15 -9 -7 -2 7 8 2 3 3 -4 11 -13 6 -5 14 -1 -1 -3 2 -3 0 -0 -1 -0 -1 -1 -0 2 -0 0 0 0 -1 -1 -1
-1 -6 -4 2 3 8 -1 -4 11 5 9 -4 8 1 0 5 9 12 8 5 23 -6 5 3 -0 1 3 33 114 10 3 -0 -2 -1 2 2 1 0 -3 2 4 -2 1 0 -2 -2 3 -2 -0
1 -6 -2 -2 11 -2 -13 5 4 -9 3 4 -13 -16 12 8 5 3 -3 -3 2 0 -8 5 20 66 36 130 11 5 1 -0 1 -2 2 -6 4 -2 0 -1 1 3 -1 2 -1 2 -3 -1 -2
0 -2 -4 2 1 0 -8 -5 -3 -1 7 -0 2 6 2 -0 -2 -5 9 5 -2 -8 -1 -2 -13 8 19 55 4 -9 7 15 3 1 2 6 -1 2 3 0 1 3 4 1 3 -1 -1 0 -1
-0 -1 -3 6 -6 -6 12 -11 0 21 3 -6 -1 7 4 7 0 -4 -0 -3 0 0 -5 -5 -7 -12 -10 17 4 3 -4 5 3 0 1 3 -1 1 -5 6 0 6 5 -1 -3 -1 -5 -1 -1
-5 -4 -4 3 2 -0 -8 5 -1 13 6 -1 -1 2 11 3 -6 -0 -1 -2 -1 -2 -4 5 3 -12 -15 -12 -3 -0 -0 3 -7 -6 -0 -2 -4 3 0 5 6 5 2 2 2 -0 1 -2 -2
-5 -2 -4 0 6 1 -2 -2 -1 -6 3 1 5 3 1 6 -6 -5 1 -3 1 1 -5 1 0 -0 2 1 2 -1 4 0 -11 -3 4 -6 6 4 4 3 8 3 3 -2 3 2 -0 0 -1
-3 -1 -3 -5 2 1 4 -0 0 -7 -6 -0 -8 -9 -2 -4 -4 -3 3 0 1 -0 1 1 -2 3 2 0 2 2 4 0 5 -8 -4 3 8 -1 0 7 -0 2 -0 0 2 1 0 1 1
0 0 -3 -1 -7 2 0 1 4 3 2 4 5 -8 -4 0 3 1 3 -4 -3 -3 -2 -0 -4 -6 -2 -3 2 -4 1 2 9 -2 -4 9 2 -3 5 2 1 -2 -4 0 2 -1 1 1 0
-1 2 2 -10 -1 -2 -1 -1 11 2 -1 -4 -3 -10 -4 -2 -0 0 -3 -1 -0 -4 -6 -9 -2 -3 -3 0 0 -6 8 -2 8 -2 7 3 0 -1 6 -0 -2 -1 1 2 1 2 1 1 2
0 -3 -1 -10 -2 6 -2 -1 1 -2 1 -2 2 -7 -0 -3 1 3 2 6 3 -8 1 -3 -2 -5 -5 -0 -1 -1 -3 0 -0 -3 -2 -2 -0 -0 0 -1 -1 -3 -0 -1 3 1 2 -3 2
3 -1 -6 3 6 -5 -4 -7 6 -1 -2 2 -4 0 -4 3 2 1 1 2 5 3 1 0 -3 -6 -4 -3 -2 -6 -1 1 1 2 -2 0 4 -2 -6 -1 1 2 1 -0 -1 -1 2 0 -1
-1 -1 -6 2 10 -4 2 -4 -0 -1 -2 5 -3 3 1 -1 8 5 1 -0 -2 2 4 5 3 -0 -4 -3 6 -6 -14 -0 1 -5 -6 2 -4 -2 -1 3 -0 -2 5 3 0 0 -2 3 -2
-3 -3 1 5 -7 -5 4 1 -9 1 2 6 -2 2 -0 2 -2 -1 -4 1 2 0 2 -2 -3 1 2 -4 -5 -2 1 -5 -1 -1 2 3 1 0 5 2 2 -0 -1 2 -3 -2 1 -0 0
-1 -2 4 0 -4 -7 -5 5 -3 0 5 -4 -0 -0 2 1 -1 -2 -0 -0 -0 -2 -3 -4 0 -2 -0 0 -2 1 2 2 -0 1 4 0 1 8 -1 0 -3 -2 -0 -2 -1 0 -3 -6 4
0 -5 -2 -2 1 -10 -4 -13 -6 0 -8 -2 -0 0 1 -5 -1 -1 -1 -1 1 -1 -3 -3 -3 -5 -3 -2 2 -0 -5 -4 -5 -5 -1 -2 -2 5 -9 0 2 2 -3 3 2 -3 -4 3 -2
2 -2 -0 1 -2 -1 2 -10 -6 -10 6 4 -0 -1 -3 3 -0 -2 1 3 -2 3 1 0 2 -0 -0 -2 1 0 -4 -3 -2 -2 -2 -1 -5 -2 0 5 -1 -1 -3 -2 2 -2 -2 -3 -8
3 -3 -1 -2 -3 -8 17 1 1 -4 0 -8 -13 -1 -8 -3 2 3 -4 -3 1 -6 -2 -3 -3 -3 -6 -5 -8 -10 -7 -8 -3 -6 -0 4 -1 -5 1 13 3 0 -4 -0 -0 1 -0 -0 -6
0 -2 -2 -2 -6 3 -2 -4 4 3 4 -13 1 1 1 -8 1 2 6 -3 -2 4 -3 -2 -4 -1 0 1 2 2 -1 -2 -2 -2 0 -2 0 6 10 9 7 1 1 -1 -4 1 2 -3 11
1 1 0 -4 -3 -1 -3 -4 8 -1 7 2 -3 -1 -7 -2 -12 -2 4 3 5 1 8 3 8 6 3 -3 3 0 1 -3 -7 -6 -7 -2 1 1 0 -4 -5 3 5 2 -2 -2 -2 -2 -1
1 -5 9 -6 -1 -4 -4 -3 -2 -6 5 1 -4 -5 -5 -10 0 -12 -6 0 9 1 1 5 1 4 11 10 2 -5 -7 -0 0 -4 -5 -0 4 -0 -5 -3 -2 -0 0 -0 2 1 -0 0 1
-7 10 -2 -7 -3 -1 -1 -7 5 9 -5 -11 4 3 7 2 -6 -5 -13 1 -8 3 1 -9 -2 -5 -4 -5 2 3 0 -0 -0 -2 -0 -2 -3 -1 4 2 -0 -1 -1 -1 -2 0 2 2 -1
-3 -4 -4 3 -10 -0 -0 1 2 -0 -1 3 -4 3 2 10 -4 -4 2 -0 -8 -9 -4 7 0 -7 23 39 8 -2 1 2 18 -1 -1 6 3 -5 -0 1 1 -1 1 1 -0 -1 0 -1 -1
6 1 2 0 3 -1 -10 3 2 5 -0 5 6 -4 -9 -1 8 -4 -4 -1 -1 -3 1 -1 13 -8 11 2 -4 -1 19 15 45 -11 -7 1 -1 -1 -2 -3 -3 -1 1 1 -1 -2 0 2 -2
Height
5805 5801 5796 5791 5789 5785 5784 5782 5783 5785 5784 5785 5790 5793 5795 5797 5799 5800 5802 5802 5803 5798 5776 5797 5800 5809 5818 5822 5826 5830 5831 5832 5835 5835 5836 5838 5839 5840 5840 5841 5841 5841 5841 5842 5842 5842 5843 5844 5843
5800 5796 5789 5785 5784 5783 5783 5781 5783 5783 5782 5782 5786 5786 5788 5790 5790 5793 5800 5803 5802 5794 5791 5787 5802 5808 5813 5818 5821 5825 5826 5828 5830 5831 5832 5833 5835 5836 5836 5837 5838 5837 5839 5839 5839 5840 5841 5841 5841
5796 5791 5786 5783 5781 5781 5781 5781 5783 5781 5780 5780 5779 5781 5785 5783 5785 5784 5788 5793 5796 5793 5788 5794 5802 5802 5808 5810 5816 5818 5819 5822 5825 5828 5828 5829 5831 5832 5832 5833 5834 5835 5835 5836 5836 5837 5837 5838 5838
5792 5786 5784 5781 5782 5781 5778 5781 5782 5779 5778 5776 5776 5774 5778 5780 5778 5781 5776 5783 5789 5782 5783 5787 5794 5796 5799 5806 5808 5812 5814 5818 5821 5823 5825 5826 5826 5827 5828 5828 5830 5831 5832 5833 5833 5834 5834 5835 5835
5787 5784 5782 5778 5776 5779 5780 5782 5782 5776 5775 5775 5777 5775 5775 5772 5774 5778 5775 5782 5781 5783 5786 5789 5787 5779 5792 5798 5802 5805 5809 5812 5817 5820 5822 5823 5823 5823 5825 5826 5827 5828 5829 5829 5830 5830 5830 5831 5831
5786 5783 5779 5773 5776 5779 5781 5780 5778 5769 5771 5774 5775 5773 5770 5765 5768 5766 5772 5777 5776 5778 5783 5785 5781 5763 5785 5792 5792 5795 5804 5809 5814 5816 5818 5819 5820 5820 5823 5823 5825 5825 5826 5826 5826 5826 5827 5827 5829
5783 5780 5776 5773 5776 5780 5779 5776 5774 5771 5772 5771 5769 5768 5766 5763 5761 5763 5764 5770 5772 5777 5779 5781 5780 5782 5792 5794 5792 5793 5800 5804 5809 5811 5812 5815 5815 5817 5819 5819 5821 5822 5823 5823 5823 5822 5822 5823 5825
5782 5778 5775 5775 5775 5775 5772 5771 5772 5770 5764 5761 5763 5765 5763 5760 5764 5761 5765 5767 5769 5773 5770 5773 5778 5779 5779 5785 5778 5787 5791 5800 5803 5804 5807 5809 5810 5812 5815 5815 5815 5816 5818 5819 5819 5819 5820 5821 5822
5779 5776 5774 5772 5775 5771 5765 5765 5770 5762 5758 5756 5759 5760 5759 5762 5762 5761 5761 5766 5766 5771 5771 5770 5775 5770 5761 5766 5780 5783 5790 5792 5796 5800 5801 5803 5807 5808 5809 5809 5810 5810 5813 5815 5815 5816 5817 5821 5821
5776 5774 5771 5770 5772 5770 5766 5763 5761 5763 5759 5757 5755 5756 5758 5758 5759 5758 5755 5760 5763 5765 5765 5766 5768 5770 5769 5775 5778 5783 5785 5790 5790 5794 5797 5799 5800 5803 5804 5804 5804 5806 5805 5809 5811 5813 5815 5817 5819
5773 5771 5768 5770 5768 5766 5767 5760 5762 5760 5756 5753 5755 5755 5754 5756 5755 5755 5754 5756 5758 5760 5763 5765 5765 5768 5770 5771 5774 5778 5783 5784 5788 5790 5791 5792 5795 5797 5799 5798 5799 5800 5800 5801 5806 5809 5812 5814 5817
5769 5769 5767 5767 5767 5766 5762 5759 5759 5757 5755 5755 5754 5750 5752 5752 5750 5748 5748 5752 5757 5758 5762 5764 5765 5768 5769 5771 5774 5775 5777 5780 5785 5787 5788 5787 5791 5792 5791 5793 5794 5795 5796 5798 5802 5806 5810 5811 5813
5767 5767 5765 5765 5764 5764 5763 5761 5761 5758 5756 5753 5749 5746 5742 5742 5744 5745 5746 5748 5752 5755 5758 5760 5762 5764 5765 5767 5769 5770 5772 5776 5779 5782 5782 5782 5785 5786 5787 5787 5791 5794 5795 5797 5801 5804 5806 5809 5811
5765 5764 5764 5764 5764 5763 5763 5758 5756 5755 5756 5751 5746 5739 5734 5732 5734 5739 5744 5746 5748 5751 5752 5754 5756 5758 5759 5760 5765 5769 5770 5771 5773 5777 5776 5778 5781 5782 5783 5786 5788 5791 5792 5795 5798 5802 5803 5805 5807
5764 5764 5764 5764 5762 5763 5761 5760 5758 5755 5753 5753 5743 5735 5730 5728 5731 5735 5738 5743 5745 5744 5748 5751 5751 5751 5752 5756 5760 5762 5766 5768 5771 5772 5772 5775 5777 5778 5782 5785 5787 5790 5792 5794 5796 5799 5801 5801 5803
5762 5763 5763 5760 5760 5762 5763 5760 5758 5755 5754 5750 5742 5734 5732 5729 5730 5734 5737 5740 5740 5740 5742 5742 5742 5745 5748 5753 5757 5758 5761 5764 5767 5766 5769 5772 5772 5776 5781 5783 5786 5788 5791 5792 5794 5795 5796 5798 5799
5760 5759 5760 5756 5757 5759 5761 5759 5758 5752 5753 5750 5743 5738 5739 5736 5734 5735 5735 5739 5739 5739 5736 5735 5736 5741 5745 5749 5752 5752 5755 5759 5761 5763 5764 5766 5771 5777 5780 5783 5784 5787 5790 5790 5792 5793 5794 5794 5795
5758 5756 5756 5757 5758 5755 5757 5758 5757 5752 5753 5752 5745 5744 5743 5742 5740 5739 5739 5740 5740 5741 5740 5737 5734 5735 5742 5745 5748 5747 5751 5755 5757 5761 5763 5767 5774 5777 5777 5779 5782 5784 5786 5788 5789 5790 5790 5789 5790
5754 5752 5754 5756 5756 5753 5752 5754 5756 5754 5751 5751 5748 5748 5745 5745 5744 5743 5742 5741 5741 5740 5740 5741 5740 5742 5744 5747 5748 5748 5752 5758 5759 5763 5765 5770 5773 5774 5774 5777 5780 5782 5784 5783 5785 5785 5784 5786 5784
5750 5748 5752 5752 5748 5751 5752 5748 5750 5753 5753 5751 5749 5746 5746 5748 5746 5746 5744 5744 5743 5743 5743 5744 5744 5746 5747 5748 5749 5752 5755 5756 5761 5765 5769 5769 5770 5770 5772 5775 5777 5779 5780 5779 5779 5779 5778 5777 5776
5748 5746 5749 5750 5747 5750 5749 5748 5745 5749 5751 5750 5749 5747 5746 5746 5746 5745 5745 5744 5745 5745 5745 5745 5745 5745 5746 5748 5751 5754 5757 5758 5761 5764 5766 5768 5768 5769 5768 5771 5773 5775 5775 5775 5774 5772 5771 5771 5771
5744 5743 5743 5743 5745 5746 5747 5747 5743 5742 5745 5747 5748 5748 5748 5747 5746 5745 5744 5745 5745 5745 5747 5747 5747 5747 5747 5749 5751 5752 5753 5754 5757 5759 5761 5762 5763 5765 5766 5768 5769 5769 5769 5769 5768 5767 5766 5763 5762
5741 5740 5740 5741 5743 5743 5745 5744 5741 5739 5739 5743 5746 5747 5748 5749 5747 5746 5746 5746 5745 5746 5746 5746 5747 5747 5749 5751 5751 5752 5752 5753 5754 5756 5757 5758 5760 5761 5763 5762 5763 5764 5764 5762 5762 5761 5759 5756 5753
5736 5736 5737 5738 5738 5737 5743 5741 5740 5737 5738 5738 5739 5744 5740 5745 5747 5746 5744 5746 5745 5745 5746 5746 5746 5746 5747 5748 5749 5750 5751 5754 5755 5755 5755 5753 5753 5754 5755 5756 5756 5757 5757 5757 5756 5754 5752 5748 5744
5730 5731 5732 5734 5733 5735 5734 5736 5739 5739 5739 5735 5742 5741 5740 5738 5744 5745 5745 5743 5742 5743 5743 5743 5745 5745 5745 5745 5746 5747 5747 5748 5747 5748 5746 5746 5746 5748 5749 5750 5752 5752 5752 5750 5747 5746 5743 5738 5736
5726 5728 5728 5729 5730 5731 5732 5733 5736 5735 5737 5736 5735 5735 5736 5736 5735 5739 5741 5742 5741 5740 5741 5741 5741 5743 5744 5743 5743 5743 5743 5743 5743 5744 5744 5745 5746 5744 5742 5743 5745 5744 5743 5740 5739 5736 5733 5730 5727
5722 5721 5726 5724 5724 5727 5730 5730 5731 5730 5733 5733 5732 5730 5729 5733 5733 5730 5732 5736 5736 5737 5737 5737 5736 5737 5740 5742 5742 5741 5739 5739 5739 5739 5741 5741 5740 5739 5738 5738 5737 5736 5735 5733 5730 5727 5724 5721 5717
5714 5720 5718 5718 5718 5722 5726 5725 5727 5727 5726 5727 5729 5731 5731 5730 5729 5729 5726 5727 5728 5731 5735 5731 5729 5729 5730 5732 5735 5734 5733 5733 5732 5733 5734 5733 5733 5732 5733 5732 5730 5728 5726 5725 5722 5718 5715 5711 5707
5708 5709 5713 5713 5714 5716 5721 5722 5721 5723 5725 5725 5726 5727 5728 5729 5726 5724 5723 5723 5721 5722 5727 5730 5729 5725 5723 5717 5725 5727 5727 5727 5725 5726 5726 5727 5726 5725 5723 5722 5721 5719 5718 5715 5712 5708 5705 5700 5696
5701 5704 5708 5708 5712 5710 5713 5717 5718 5721 5722 5722 5723 5720 5720 5724 5725 5721 5721 5719 5716 5716 5720 5720 5721 5719 5721 5719 5720 5720 5720 5716 5714 5715 5717 5720 5719 5718 5716 5714 5712 5710 5708 5705 5702 5698 5694 5689 5685